TimeCDT,TemperatureF,Dew PointF,Humidity,Sea Level PressureIn,VisibilityMPH,Wind Direction,Wind SpeedMPH,Gust SpeedMPH,PrecipitationIn,Events,Conditions,WindDirDegrees,DateUTC
12:15 AM,32.0,26.6,80,29.84,10.0,SE,18.4,25.3,N/A,,Overcast,140,2013-03-18 05:15:00
12:35 AM,32.0,28.4,87,29.82,10.0,SE,19.6,-,N/A,,Overcast,140,2013-03-18 05:35:00
12:55 AM,30.2,28.4,93,29.81,5.0,SE,20.7,-,N/A,Rain,Freezing Rain,140,2013-03-18 05:55:00
1:15 AM,30.2,28.4,93,29.80,3.0,SE,16.1,23.0,N/A,Rain,Freezing Rain,140,2013-03-18 06:15:00
1:35 AM,30.2,28.4,93,29.80,5.0,SE,17.3,-,N/A,,Overcast,140,2013-03-18 06:35:00
1:55 AM,30.2,28.4,93,29.78,7.0,SE,18.4,26.5,N/A,,Overcast,140,2013-03-18 06:55:00
2:15 AM,30.2,28.4,93,29.77,6.0,SSE,17.3,24.2,N/A,,Overcast,150,2013-03-18 07:15:00
2:35 AM,30.2,28.4,93,29.75,5.0,SSE,21.9,-,N/A,,Overcast,150,2013-03-18 07:35:00
2:55 AM,30.2,28.4,93,29.73,6.0,SE,20.7,26.5,N/A,,Overcast,140,2013-03-18 07:55:00
3:15 AM,30.2,28.4,93,29.72,6.0,SSE,19.6,-,N/A,,Overcast,150,2013-03-18 08:15:00
3:35 AM,30.2,28.4,93,29.72,7.0,SSE,20.7,27.6,N/A,,Overcast,150,2013-03-18 08:35:00
3:55 AM,30.2,28.4,93,29.70,7.0,SSE,24.2,-,N/A,,Overcast,150,2013-03-18 08:55:00
4:15 AM,30.2,28.4,93,29.70,8.0,SSE,19.6,27.6,N/A,,Overcast,150,2013-03-18 09:15:00
4:35 AM,30.2,28.4,93,29.72,6.0,South,18.4,-,N/A,,Overcast,170,2013-03-18 09:35:00
4:55 AM,30.2,28.4,93,29.72,2.0,South,12.7,-,N/A,Rain,Freezing Rain,180,2013-03-18 09:55:00
5:15 AM,30.2,28.4,93,29.73,1.2,South,15.0,-,N/A,Snow,Light Snow,190,2013-03-18 10:15:00
5:35 AM,30.2,28.4,93,29.71,0.5,South,12.7,-,N/A,Snow,Light Snow,180,2013-03-18 10:35:00
5:55 AM,30.2,28.4,93,29.71,0.8,South,13.8,-,0.01,Rain,Freezing Rain,170,2013-03-18 10:55:00
6:15 AM,30.2,28.4,93,29.69,0.8,South,13.8,-,N/A,Snow,Light Snow,170,2013-03-18 11:15:00
6:35 AM,30.2,28.4,93,29.69,1.0,South,15.0,-,N/A,Rain,Freezing Rain,170,2013-03-18 11:35:00
6:55 AM,30.2,28.4,93,29.68,1.5,South,15.0,-,N/A,Rain,Freezing Rain,170,2013-03-18 11:55:00
7:15 AM,30.2,28.4,93,29.68,1.0,South,17.3,-,N/A,,Overcast,180,2013-03-18 12:15:00
7:35 AM,30.2,28.4,93,29.67,1.0,South,17.3,-,N/A,,Overcast,180,2013-03-18 12:35:00
7:55 AM,30.2,30.2,100,29.67,1.2,South,17.3,-,N/A,,Overcast,190,2013-03-18 12:55:00
8:15 AM,30.2,30.2,100,29.67,1.2,South,15.0,-,N/A,,Overcast,190,2013-03-18 13:15:00
8:35 AM,32.0,30.2,93,29.67,1.2,SW,13.8,24.2,N/A,,Overcast,220,2013-03-18 13:35:00
8:55 AM,32.0,30.2,93,29.67,1.8,West,19.6,-,N/A,,Light Drizzle,280,2013-03-18 13:55:00
9:15 AM,32.0,28.4,87,29.68,4.0,WNW,23.0,-,N/A,Rain,Light Rain,290,2013-03-18 14:15:00
9:35 AM,28.4,23.0,80,29.69,6.0,WNW,24.2,32.2,N/A,,Haze,300,2013-03-18 14:35:00
9:55 AM,26.6,21.2,80,29.69,5.0,WNW,24.2,38.0,N/A,,Haze,300,2013-03-18 14:55:00
10:35 AM,24.8,19.4,80,29.71,5.0,WNW,25.3,33.4,N/A,,Haze,300,2013-03-18 15:35:00
10:55 AM,23.0,17.6,80,29.72,5.0,WNW,27.6,35.7,N/A,,Freezing Rain,300,2013-03-18 15:55:00
11:15 AM,23.0,17.6,80,29.73,9.0,NW,24.2,32.2,N/A,,Scattered Clouds,310,2013-03-18 16:15:00
11:35 AM,23.0,17.6,80,29.73,8.0,WNW,24.2,33.4,N/A,,Freezing Rain,300,2013-03-18 16:35:00
11:55 AM,23.0,15.8,74,29.74,8.0,WNW,26.5,33.4,N/A,,Mostly Cloudy,300,2013-03-18 16:55:00
12:15 PM,21.2,14.0,74,29.75,3.0,WNW,26.5,36.8,N/A,,Freezing Rain,300,2013-03-18 17:15:00
12:35 PM,21.2,14.0,74,29.75,8.0,WNW,32.2,39.1,N/A,Rain,Freezing Rain,300,2013-03-18 17:35:00
12:55 PM,23.0,15.8,74,29.76,9.0,WNW,28.8,-,N/A,,Overcast,300,2013-03-18 17:55:00
1:15 PM,21.2,14.0,74,29.77,4.0,WNW,31.1,39.1,N/A,,Mostly Cloudy,300,2013-03-18 18:15:00
1:35 PM,21.2,15.8,80,29.77,2.5,WNW,25.3,35.7,N/A,Snow,Light Snow,300,2013-03-18 18:35:00
1:55 PM,21.2,14.0,74,29.77,3.0,WNW,33.4,40.3,N/A,Snow,Light Snow,290,2013-03-18 18:55:00
2:15 PM,21.2,15.8,80,29.78,0.8,WNW,32.2,40.3,N/A,Snow,Light Snow,290,2013-03-18 19:15:00
2:35 PM,21.2,14.0,74,29.78,1.5,WNW,33.4,-,N/A,Snow,Light Snow,290,2013-03-18 19:35:00
2:55 PM,19.4,14.0,80,29.79,2.5,WNW,34.5,-,N/A,Snow,Light Snow,290,2013-03-18 19:55:00
3:15 PM,19.4,12.2,74,29.79,4.0,WNW,33.4,40.3,N/A,Snow,Light Snow,290,2013-03-18 20:15:00
3:35 PM,19.4,14.0,80,29.80,2.5,WNW,32.2,39.1,N/A,Snow,Light Snow,290,2013-03-18 20:35:00
3:55 PM,19.4,12.2,74,29.80,5.0,WNW,32.2,39.1,N/A,,Haze,290,2013-03-18 20:55:00
4:15 PM,19.4,12.2,74,29.81,5.0,WNW,27.6,40.3,N/A,,Freezing Rain,290,2013-03-18 21:15:00
4:35 PM,19.4,12.2,74,29.82,5.0,WNW,26.5,38.0,N/A,Snow,Light Snow,300,2013-03-18 21:35:00
4:55 PM,19.4,12.2,74,29.83,3.0,WNW,29.9,40.3,N/A,Snow,Light Snow,290,2013-03-18 21:55:00
5:15 PM,21.2,12.2,68,29.83,8.0,WNW,28.8,38.0,N/A,,Overcast,300,2013-03-18 22:15:00
5:35 PM,21.2,12.2,68,29.83,9.0,WNW,32.2,-,N/A,,Freezing Rain,290,2013-03-18 22:35:00
5:55 PM,19.4,12.2,74,29.84,9.0,WNW,31.1,-,N/A,Snow,Light Snow,300,2013-03-18 22:55:00
6:15 PM,19.4,12.2,74,29.85,7.0,WNW,31.1,38.0,N/A,,Freezing Rain,290,2013-03-18 23:15:00
6:35 PM,19.4,8.6,63,29.85,7.0,WNW,27.6,36.8,N/A,,Mostly Cloudy,300,2013-03-18 23:35:00
6:55 PM,19.4,8.6,63,29.86,10.0,WNW,27.6,36.8,N/A,,Partly Cloudy,300,2013-03-18 23:55:00
7:15 PM,19.4,8.6,63,29.86,10.0,WNW,24.2,-,N/A,,Mostly Cloudy,300,2013-03-19 00:15:00
7:35 PM,19.4,10.4,68,29.87,9.0,WNW,27.6,39.1,N/A,,Overcast,300,2013-03-19 00:35:00
7:55 PM,17.6,10.4,73,29.88,8.0,WNW,24.2,35.7,N/A,Snow,Light Snow,300,2013-03-19 00:55:00
8:15 PM,17.6,8.6,68,29.88,10.0,WNW,24.2,34.5,N/A,,Mostly Cloudy,290,2013-03-19 01:15:00
8:35 PM,17.6,8.6,68,29.89,10.0,WNW,26.5,36.8,N/A,,Mostly Cloudy,290,2013-03-19 01:35:00
8:55 PM,17.6,6.8,63,29.90,10.0,WNW,25.3,34.5,N/A,,Scattered Clouds,300,2013-03-19 01:55:00
9:15 PM,17.6,6.8,63,29.92,10.0,WNW,21.9,33.4,N/A,,Clear,300,2013-03-19 02:15:00
9:35 PM,15.8,6.8,68,29.92,10.0,WNW,24.2,34.5,N/A,,Clear,300,2013-03-19 02:35:00
9:55 PM,15.8,5.0,62,29.93,10.0,WNW,26.5,36.8,N/A,,Clear,300,2013-03-19 02:55:00
10:15 PM,15.8,5.0,62,29.93,10.0,WNW,31.1,-,N/A,,Clear,300,2013-03-19 03:15:00
10:55 PM,15.8,5.0,62,29.94,10.0,WNW,24.2,31.1,N/A,,Clear,300,2013-03-19 03:55:00
11:15 PM,15.8,5.0,62,29.94,10.0,WNW,25.3,-,N/A,,Clear,300,2013-03-19 04:15:00
11:35 PM,15.8,5.0,62,29.94,10.0,WNW,24.2,33.4,N/A,,Clear,300,2013-03-19 04:35:00
11:55 PM,14.0,5.0,67,29.93,10.0,NW,21.9,28.8,N/A,,Clear,310,2013-03-19 04:55:00